When you browse on this site, cookies collect data to enhance your experience and personalize the content and advertising you see.
Visit our Privacy Policy to learn more. By continuing to use the site, you agree to this use of cookies and data.
  • In Hungary
  • List of Countries
  • For 7 days
  • Water Temperature
  • Satellite Maps
  • Weather Map
  • News
  • Weather Widgets
  • user-avatar
    Login

    Hourly Weather Albany

    Today, 24 February, Sunday

    Time Temperature Precipitation Wind Pressure Humidity
    00:00 0°C° 0.3 mm 3 mps 764 mmHg 83%
    01:00 0°C° 0.3 mm 3 mps 764 mmHg 85%
    02:00 0°C° 0.4 mm 3 mps 763 mmHg 86%
    03:00 0°C° 0.4 mm 3 mps 762 mmHg 87%
    04:00 0°C° 0.4 mm 3 mps 761 mmHg 89%
    05:00 +1°C° 0.4 mm 3 mps 759 mmHg 89%
    06:00 +1°C° 0.4 mm 3 mps 758 mmHg 90%
    07:00 +1°C° 0.4 mm 3 mps 757 mmHg 91%
    08:00 +3°C° 0.2 mm 4 mps 755 mmHg 89%
    09:00 +4°C° 0.2 mm 4 mps 753 mmHg 88%
    10:00 +6°C° 0.2 mm 5 mps 752 mmHg 86%
    11:00 +7°C° 0.4 mm 5 mps 750 mmHg 87%
    12:00 +7°C° 0.4 mm 6 mps 748 mmHg 87%
    13:00 +8°C° 0.4 mm 7 mps 746 mmHg 87%
    14:00 +7°C° 0.2 mm 6 mps 745 mmHg 89%
    15:00 +7°C° 0.2 mm 5 mps 744 mmHg 91%
    16:00 +7°C° 0.2 mm 3 mps 742 mmHg 93%
    17:00 +7°C° 0.2 mm 3 mps 742 mmHg 92%
    18:00 +7°C° 0.2 mm 3 mps 741 mmHg 90%
    19:00 +7°C° 0.2 mm 3 mps 741 mmHg 88%
    20:00 +4°C° 0.1 mm 3 mps 741 mmHg 85%
    21:00 +3°C° 0.1 mm 3 mps 741 mmHg 81%
    22:00 +2°C° 0.1 mm 3 mps 741 mmHg 78%
    23:00 +2°C° 0.1 mm 3 mps 741 mmHg 76%

    Tomorrow, 25 February, Monday

    Time Temperature Precipitation Wind Pressure Humidity
    00:00 0°C° 0.1 mm 4 mps 741 mmHg 73%
    01:00 -1°C° 0.1 mm 4 mps 742 mmHg 71%
    02:00 -1°C° 0 mm 4 mps 742 mmHg 70%
    03:00 -2°C° 0 mm 4 mps 742 mmHg 69%
    04:00 -2°C° 0 mm 4 mps 742 mmHg 68%
    05:00 -2°C° 0 mm 5 mps 743 mmHg 66%
    06:00 -4°C° 0 mm 5 mps 744 mmHg 64%
    07:00 -4°C° 0 mm 6 mps 744 mmHg 62%
    08:00 -4°C° 0.1 mm 7 mps 745 mmHg 60%
    09:00 -5°C° 0.1 mm 9 mps 747 mmHg 58%
    10:00 -4°C° 0.1 mm 10 mps 748 mmHg 57%
    11:00 -5°C° 0 mm 10 mps 749 mmHg 56%
    12:00 -5°C° 0 mm 10 mps 750 mmHg 56%
    13:00 -5°C° 0 mm 10 mps 751 mmHg 55%
    14:00 -5°C° 0 mm 10 mps 752 mmHg 55%
    15:00 -7°C° 0 mm 10 mps 753 mmHg 55%
    16:00 -7°C° 0 mm 10 mps 754 mmHg 55%
    17:00 -8°C° 0 mm 9 mps 755 mmHg 56%
    18:00 -8°C° 0 mm 9 mps 757 mmHg 57%
    19:00 -8°C° 0 mm 8 mps 758 mmHg 58%
    20:00 -10°C° 0 mm 8 mps 759 mmHg 57%
    21:00 -10°C° 0 mm 8 mps 760 mmHg 56%
    22:00 -11°C° 0 mm 8 mps 761 mmHg 56%
    23:00 -12°C° 0 mm 8 mps 761 mmHg 55%

    Day after tomorrow, 26 February, Tuesday

    Time Temperature Precipitation Wind Pressure Humidity
    00:00 -12°C° 0 mm 8 mps 762 mmHg 54%
    01:00 -13°C° 0 mm 8 mps 763 mmHg 52%
    02:00 -13°C° 0 mm 7 mps 764 mmHg 53%
    03:00 -14°C° 0 mm 7 mps 764 mmHg 53%
    04:00 -14°C° 0 mm 7 mps 765 mmHg 53%
    05:00 -15°C° 0 mm 7 mps 766 mmHg 53%
    06:00 -15°C° 0 mm 7 mps 766 mmHg 52%
    07:00 -15°C° 0 mm 6 mps 767 mmHg 52%
    08:00 -15°C° 0 mm 7 mps 768 mmHg 49%
    09:00 -14°C° 0 mm 7 mps 768 mmHg 45%
    10:00 -13°C° 0 mm 7 mps 768 mmHg 42%
    11:00 -13°C° 0 mm 8 mps 768 mmHg 40%
    12:00 -12°C° 0 mm 8 mps 768 mmHg 39%
    13:00 -12°C° 0 mm 8 mps 768 mmHg 37%
    14:00 -12°C° 0 mm 8 mps 768 mmHg 38%
    15:00 -12°C° 0 mm 7 mps 768 mmHg 38%
    16:00 -12°C° 0 mm 7 mps 769 mmHg 39%
    17:00 -13°C° 0 mm 7 mps 769 mmHg 42%
    18:00 -12°C° 0 mm 6 mps 770 mmHg 45%
    19:00 -14°C° 0 mm 6 mps 771 mmHg 48%
    20:00 -13°C° 0 mm 5 mps 771 mmHg 50%
    21:00 -13°C° 0 mm 5 mps 771 mmHg 51%
    22:00 -13°C° 0 mm 5 mps 772 mmHg 52%
    23:00 -14°C° 0 mm 4 mps 772 mmHg 53%

    27 February, Wednesday

    Time Temperature Precipitation Wind Pressure Humidity
    00:00 -14°C° 0 mm 4 mps 772 mmHg 53%
    01:00 -14°C° 0 mm 4 mps 772 mmHg 54%
    02:00 -15°C° 0 mm 4 mps 772 mmHg 54%
    03:00 -15°C° 0 mm 4 mps 772 mmHg 55%
    04:00 -15°C° 0 mm 4 mps 772 mmHg 56%
    05:00 -14°C° 0 mm 3 mps 772 mmHg 56%
    06:00 -15°C° 0 mm 3 mps 773 mmHg 56%
    07:00 -15°C° 0 mm 3 mps 773 mmHg 56%
    08:00 -14°C° 0 mm 3 mps 773 mmHg 51%
    09:00 -12°C° 0 mm 2 mps 772 mmHg 45%
    10:00 -9°C° 0 mm 2 mps 772 mmHg 40%
    11:00 -7°C° 0 mm 1 mps 771 mmHg 36%
    12:00 -4°C° 0 mm 1 mps 770 mmHg 33%
    13:00 -3°C° 0 mm 0 mps 769 mmHg 29%
    14:00 -2°C° 0 mm 1 mps 768 mmHg 30%
    15:00 -2°C° 0 mm 1 mps 767 mmHg 31%
    16:00 -4°C° 0 mm 2 mps 766 mmHg 32%
    17:00 -4°C° 0 mm 2 mps 765 mmHg 37%
    18:00 -5°C° 0 mm 3 mps 764 mmHg 43%
    19:00 -6°C° 0 mm 3 mps 764 mmHg 48%
    20:00 -5°C° 0.1 mm 3 mps 762 mmHg 55%
    21:00 -5°C° 0.1 mm 4 mps 761 mmHg 62%
    22:00 -5°C° 0.1 mm 4 mps 760 mmHg 69%
    23:00 -4°C° 0.4 mm 4 mps 759 mmHg 74%

    28 February, Thursday

    Time Temperature Precipitation Wind Pressure Humidity
    00:00 -4°C° 0.4 mm 4 mps 758 mmHg 79%
    01:00 -2°C° 0.4 mm 3 mps 756 mmHg 84%
    02:00 -2°C° 0.1 mm 3 mps 756 mmHg 86%
    03:00 -2°C° 0.1 mm 2 mps 755 mmHg 88%
    04:00 -1°C° 0.1 mm 2 mps 755 mmHg 91%
    05:00 -2°C° 0 mm 2 mps 755 mmHg 88%
    06:00 -2°C° 0 mm 3 mps 755 mmHg 86%
    07:00 -2°C° 0 mm 3 mps 756 mmHg 83%
    08:00 -2°C° 0 mm 4 mps 756 mmHg 75%
    09:00 -1°C° 0 mm 4 mps 757 mmHg 67%
    10:00 0°C° 0 mm 5 mps 757 mmHg 60%
    11:00 0°C° 0 mm 5 mps 758 mmHg 59%
    12:00 0°C° 0 mm 5 mps 758 mmHg 58%
    13:00 0°C° 0 mm 5 mps 758 mmHg 57%
    14:00 0°C° 0 mm 5 mps 758 mmHg 57%
    15:00 -1°C° 0 mm 5 mps 759 mmHg 56%
    16:00 -2°C° 0 mm 5 mps 759 mmHg 56%
    17:00 -3°C° 0 mm 4 mps 760 mmHg 60%
    18:00 -4°C° 0 mm 4 mps 761 mmHg 63%
    19:00 -5°C° 0 mm 4 mps 761 mmHg 66%
    20:00 -5°C° 0 mm 3 mps 762 mmHg 67%
    21:00 -5°C° 0 mm 3 mps 762 mmHg 68%
    22:00 -6°C° 0 mm 3 mps 763 mmHg 68%
    23:00 -5°C° 0 mm 2 mps 763 mmHg 70%

    1 March, Friday

    Time Temperature Precipitation Wind Pressure Humidity
    00:00 -5°C° 0 mm 2 mps 763 mmHg 72%
    01:00 -6°C° 0 mm 2 mps 763 mmHg 74%
    02:00 -6°C° 0 mm 2 mps 763 mmHg 74%
    03:00 -6°C° 0 mm 2 mps 763 mmHg 74%
    04:00 -6°C° 0 mm 2 mps 763 mmHg 74%
    05:00 -4°C° 0 mm 1 mps 764 mmHg 73%
    06:00 -6°C° 0 mm 1 mps 764 mmHg 73%
    07:00 -6°C° 0 mm 1 mps 765 mmHg 73%
    08:00 -4°C° 0 mm 1 mps 765 mmHg 65%
    09:00 -4°C° 0 mm 2 mps 765 mmHg 57%
    10:00 -3°C° 0 mm 2 mps 765 mmHg 49%
    11:00 -2°C° 0 mm 2 mps 765 mmHg 45%
    12:00 +2°C° 0 mm 1 mps 765 mmHg 42%
    13:00 +3°C° 0 mm 1 mps 765 mmHg 39%
    14:00 +3°C° 0 mm 1 mps 764 mmHg 40%
    15:00 +3°C° 0 mm 1 mps 764 mmHg 41%
    16:00 +3°C° 0 mm 1 mps 764 mmHg 42%
    17:00 +2°C° 0 mm 1 mps 765 mmHg 47%
    18:00 0°C° 0 mm 1 mps 765 mmHg 53%
    19:00 -1°C° 0 mm 1 mps 766 mmHg 59%
    20:00 -1°C° 0 mm 1 mps 766 mmHg 59%
    21:00 -1°C° 0 mm 1 mps 766 mmHg 59%
    22:00 -2°C° 0 mm 1 mps 766 mmHg 60%
    23:00 -2°C° 0 mm 1 mps 766 mmHg 61%
    Show more